Location: Black Forest
(43.4794°N, 75.0081°W)
Time: 19:44:57
(UTC-04:00)

ISS - All Passes

Search period start: 31 May 2016 00:00
Search period end: 10 June 2016 00:00
Orbit: 402 x 404 km, 51.6° (Epoch: 31 May)

Date Brightness Start Highest point End Pass type
(mag) Time Alt. Az. Time Alt. Az. Time Alt. Az.
31 May - 00:26:55 10° NW 00:29:26 20° N 00:31:58 10° ENE visible
31 May - 02:03:14 10° NW 02:06:26 49° NNE 02:09:36 10° ESE visible
31 May - 03:40:01 10° W 03:42:42 23° SW 03:45:21 10° S visible
31 May - 20:19:29 10° SW 20:22:40 53° SE 20:25:53 10° ENE daylight
31 May - 21:56:19 10° W 21:59:15 30° NNW 22:02:12 10° NE visible
31 May - 23:33:58 10° NW 23:36:25 19° N 23:38:51 10° NE visible
01 Jun - 01:10:32 10° NW 01:13:33 33° NNE 01:16:33 10° E visible
01 Jun - 02:46:56 10° WNW 02:50:03 43° SW 02:53:10 10° SE visible
01 Jun - 19:27:09 10° SSW 19:30:01 28° SE 19:32:52 10° ENE daylight
01 Jun - 21:03:13 10° W 21:06:21 43° NNW 21:09:30 10° NE visible
01 Jun - 22:40:54 10° NW 22:43:23 20° N 22:45:53 10° NE visible
02 Jun - 00:17:49 10° NW 00:20:35 25° NNE 00:23:22 10° ENE visible
02 Jun - 01:54:04 10° WNW 01:57:21 82° SSW 02:00:36 10° SE visible
02 Jun - 03:32:33 10° WSW 03:33:16 11° SW 03:33:59 10° SW night (unlit)
02 Jun - 18:35:23 10° S 18:37:25 15° SE 18:39:27 10° E daylight
02 Jun - 20:10:15 10° WSW 20:13:30 71° NNW 20:16:47 10° NE daylight
02 Jun - 21:47:43 10° WNW 21:50:22 22° NNW 21:53:02 10° NE visible
02 Jun - 23:25:01 10° NW 23:27:35 21° N 23:30:10 10° ENE visible
03 Jun - 01:01:19 10° NW 01:04:32 57° NNE 01:07:45 10° ESE visible
03 Jun - 02:38:17 10° W 02:40:44 20° SW 02:43:09 10° S night (unlit)
03 Jun - 19:17:30 10° SW 19:20:44 64° SE 19:23:58 10° ENE daylight
03 Jun - 20:54:30 10° W 20:57:23 27° NNW 21:00:15 10° NE daylight
03 Jun - 22:32:06 10° NW 22:34:34 19° N 22:37:01 10° NE visible
04 Jun - 00:08:35 10° NW 00:11:39 36° NNE 00:14:42 10° E visible
04 Jun - 01:45:04 10° WNW 01:48:05 36° SW 01:51:07 10° SSE visible
04 Jun - 18:25:03 10° SSW 18:28:01 33° SE 18:31:01 10° ENE daylight
04 Jun - 20:01:22 10° W 20:04:27 38° NNW 20:07:32 10° NE daylight
04 Jun - 21:39:03 10° NW 21:41:31 19° N 21:43:58 10° NE visible
04 Jun - 23:15:52 10° NW 23:18:43 27° NNE 23:21:33 10° ENE visible
05 Jun - 00:52:08 10° WNW 00:55:23 69° SW 00:58:36 10° SE visible
05 Jun - 17:33:02 10° S 17:35:23 18° SE 17:37:45 10° E daylight
05 Jun - 19:08:19 10° WSW 19:11:33 60° NNW 19:14:48 10° NE daylight
05 Jun - 20:45:52 10° WNW 20:48:28 21° N 20:51:04 10° NE daylight
05 Jun - 22:23:04 10° NW 22:25:42 22° N 22:28:19 10° ENE visible
05 Jun - 23:59:19 10° NW 00:02:35 67° NNE 00:05:50 10° ESE visible
06 Jun - 01:36:32 10° W 01:38:41 17° SW 01:40:50 10° S visible
06 Jun - 18:15:29 10° SW 18:18:44 77° SE 18:22:00 10° ENE daylight
06 Jun - 19:52:39 10° WNW 19:55:27 25° NNW 19:58:16 10° NE daylight
06 Jun - 21:30:11 10° NW 21:32:39 19° N 21:35:08 10° NE visible
06 Jun - 23:06:35 10° NW 23:09:42 41° NNE 23:12:49 10° E visible
07 Jun - 00:43:10 10° WNW 00:46:04 30° SW 00:48:58 10° SSE visible
07 Jun - 17:22:54 10° SSW 17:25:59 40° SE 17:29:05 10° ENE daylight
07 Jun - 18:59:27 10° W 19:02:29 34° NNW 19:05:31 10° NE daylight
07 Jun - 20:37:09 10° NW 20:39:35 19° N 20:42:02 10° NE daylight
07 Jun - 22:13:50 10° NW 22:16:45 29° NNE 22:19:40 10° E visible
07 Jun - 23:50:09 10° WNW 23:53:22 57° SW 23:56:34 10° SE visible
08 Jun - 16:30:44 10° S 16:33:19 22° SE 16:35:55 10° E daylight
08 Jun - 18:06:21 10° WSW 18:09:34 52° NNW 18:12:46 10° NE daylight
08 Jun - 19:43:58 10° WNW 19:46:32 20° N 19:49:04 10° NE daylight
08 Jun - 21:21:04 10° NW 21:23:44 23° NNE 21:26:26 10° ENE visible
08 Jun - 22:57:18 10° NW 23:00:34 78° NNE 23:03:50 10° ESE visible
09 Jun - 00:34:51 10° W 00:36:37 14° SW 00:38:22 10° SSW visible
09 Jun - 15:39:24 10° SSE 15:40:43 12° SE 15:42:03 10° ESE daylight
09 Jun - 17:13:26 10° WSW 17:16:42 89° NW 17:19:59 10° ENE daylight
09 Jun - 18:50:44 10° WNW 18:53:28 24° NNW 18:56:13 10° NE daylight
09 Jun - 20:28:11 10° NW 20:30:42 20° N 20:33:12 10° ENE daylight
09 Jun - 22:04:31 10° NW 22:07:42 46° NNE 22:10:52 10° ESE visible
09 Jun - 23:41:14 10° W 23:44:00 25° SW 23:46:44 10° SSE visible
